• In United Kingdom
  • List of Countries
  • For 7 days
  • Water Temperature
  • Satellite Maps
  • Weather Map
  • Weather Widgets
  • user-avatar
    Login

    Hourly Weather Shaki

    Today, 22 July, Saturday

    Time Temperature Precipitation Wind Pressure Humidity
    00:00 +28°C° 0 mm 2 mps 734 mmHg 31%
    01:00 +28°C° 0 mm 2 mps 734 mmHg 31%
    02:00 +27°C° 0 mm 2 mps 734 mmHg 32%
    03:00 +27°C° 0 mm 2 mps 734 mmHg 33%
    04:00 +28°C° 0 mm 2 mps 734 mmHg 33%
    05:00 +28°C° 0 mm 1 mps 734 mmHg 32%
    06:00 +29°C° 0 mm 1 mps 734 mmHg 32%
    07:00 +31°C° 0 mm 1 mps 734 mmHg 28%
    08:00 +32°C° 0 mm 1 mps 734 mmHg 24%
    09:00 +35°C° 0 mm 2 mps 734 mmHg 20%
    10:00 +36°C° 0 mm 2 mps 734 mmHg 19%
    11:00 +37°C° 0 mm 3 mps 734 mmHg 18%
    12:00 +39°C° 0 mm 3 mps 734 mmHg 16%
    13:00 +39°C° 0 mm 3 mps 733 mmHg 16%
    14:00 +41°C° 0 mm 4 mps 733 mmHg 15%
    15:00 +41°C° 0 mm 4 mps 732 mmHg 14%
    16:00 +40°C° 0 mm 4 mps 732 mmHg 16%
    17:00 +38°C° 0 mm 4 mps 732 mmHg 17%
    18:00 +38°C° 0 mm 4 mps 732 mmHg 18%
    19:00 +36°C° 0 mm 3 mps 732 mmHg 17%
    20:00 +33°C° 0 mm 3 mps 732 mmHg 17%
    21:00 +30°C° 0 mm 3 mps 733 mmHg 16%
    22:00 +30°C° 0 mm 3 mps 732 mmHg 17%
    23:00 +29°C° 0 mm 3 mps 732 mmHg 18%

    Tomorrow, 23 July, Sunday

    Time Temperature Precipitation Wind Pressure Humidity
    00:00 +29°C° 0 mm 2 mps 732 mmHg 19%
    01:00 +28°C° 0 mm 2 mps 732 mmHg 21%
    02:00 +28°C° 0 mm 2 mps 732 mmHg 23%
    03:00 +27°C° 0 mm 2 mps 731 mmHg 24%
    04:00 +28°C° 0 mm 2 mps 731 mmHg 26%
    05:00 +28°C° 0 mm 2 mps 731 mmHg 27%
    06:00 +29°C° 0 mm 2 mps 731 mmHg 28%
    07:00 +31°C° 0 mm 2 mps 731 mmHg 25%
    08:00 +34°C° 0 mm 2 mps 731 mmHg 21%
    09:00 +36°C° 0 mm 2 mps 731 mmHg 18%
    10:00 +37°C° 0 mm 2 mps 731 mmHg 17%
    11:00 +38°C° 0 mm 2 mps 731 mmHg 16%
    12:00 +39°C° 0 mm 2 mps 730 mmHg 15%
    13:00 +39°C° 0 mm 2 mps 730 mmHg 15%
    14:00 +40°C° 0 mm 2 mps 730 mmHg 14%
    15:00 +40°C° 0 mm 2 mps 730 mmHg 14%
    16:00 +40°C° 0 mm 2 mps 730 mmHg 15%
    17:00 +39°C° 0 mm 2 mps 730 mmHg 17%
    18:00 +38°C° 0 mm 2 mps 730 mmHg 18%
    19:00 +36°C° 0 mm 2 mps 730 mmHg 19%
    20:00 +34°C° 0 mm 3 mps 731 mmHg 21%
    21:00 +31°C° 0 mm 3 mps 731 mmHg 22%
    22:00 +30°C° 0 mm 2 mps 731 mmHg 23%
    23:00 +30°C° 0 mm 2 mps 731 mmHg 25%

    Day after tomorrow, 24 July, Monday

    Time Temperature Precipitation Wind Pressure Humidity
    00:00 +29°C° 0 mm 2 mps 731 mmHg 26%
    01:00 +29°C° 0 mm 2 mps 731 mmHg 27%
    02:00 +28°C° 0 mm 2 mps 732 mmHg 28%
    03:00 +28°C° 0 mm 2 mps 732 mmHg 29%
    04:00 +28°C° 0 mm 2 mps 732 mmHg 30%
    05:00 +28°C° 0 mm 2 mps 732 mmHg 30%
    06:00 +29°C° 0 mm 1 mps 732 mmHg 31%
    07:00 +31°C° 0 mm 1 mps 732 mmHg 27%
    08:00 +32°C° 0 mm 1 mps 732 mmHg 23%
    09:00 +35°C° 0 mm 2 mps 732 mmHg 18%
    10:00 +36°C° 0 mm 2 mps 732 mmHg 17%
    11:00 +38°C° 0 mm 3 mps 731 mmHg 16%
    12:00 +39°C° 0 mm 3 mps 731 mmHg 15%
    13:00 +39°C° 0 mm 3 mps 731 mmHg 15%
    14:00 +41°C° 0 mm 4 mps 731 mmHg 14%
    15:00 +41°C° 0 mm 4 mps 730 mmHg 14%
    16:00 +40°C° 0 mm 4 mps 730 mmHg 16%
    17:00 +38°C° 0 mm 4 mps 730 mmHg 18%
    18:00 +38°C° 0 mm 4 mps 730 mmHg 20%
    19:00 +35°C° 0 mm 4 mps 731 mmHg 22%
    20:00 +33°C° 0 mm 3 mps 731 mmHg 25%
    21:00 +30°C° 0 mm 3 mps 731 mmHg 27%
    22:00 +29°C° 0 mm 3 mps 731 mmHg 29%
    23:00 +29°C° 0 mm 3 mps 731 mmHg 30%

    25 July, Tuesday

    Time Temperature Precipitation Wind Pressure Humidity
    00:00 +28°C° 0 mm 3 mps 731 mmHg 31%
    01:00 +28°C° 0 mm 2 mps 731 mmHg 32%
    02:00 +27°C° 0 mm 2 mps 731 mmHg 32%
    03:00 +27°C° 0 mm 2 mps 731 mmHg 33%
    04:00 +27°C° 0 mm 2 mps 731 mmHg 33%
    05:00 +28°C° 0 mm 1 mps 731 mmHg 33%
    06:00 +28°C° 0 mm 1 mps 731 mmHg 33%
    07:00 +30°C° 0 mm 1 mps 731 mmHg 30%
    08:00 +32°C° 0 mm 1 mps 731 mmHg 28%
    09:00 +34°C° 0 mm 1 mps 731 mmHg 25%
    10:00 +35°C° 0 mm 1 mps 730 mmHg 23%
    11:00 +37°C° 0 mm 2 mps 730 mmHg 22%
    12:00 +38°C° 0 mm 2 mps 730 mmHg 20%
    13:00 +39°C° 0 mm 2 mps 729 mmHg 20%
    14:00 +39°C° 0 mm 2 mps 729 mmHg 19%
    15:00 +39°C° 0 mm 3 mps 729 mmHg 18%
    16:00 +39°C° 0 mm 3 mps 729 mmHg 19%
    17:00 +38°C° 0 mm 3 mps 729 mmHg 20%
    18:00 +38°C° 0 mm 3 mps 729 mmHg 21%
    19:00 +36°C° 0 mm 3 mps 729 mmHg 22%
    20:00 +34°C° 0 mm 3 mps 730 mmHg 22%
    21:00 +30°C° 0 mm 3 mps 730 mmHg 23%
    22:00 +30°C° 0 mm 3 mps 730 mmHg 25%
    23:00 +29°C° 0 mm 3 mps 730 mmHg 26%

    26 July, Wednesday

    Time Temperature Precipitation Wind Pressure Humidity
    00:00 +29°C° 0 mm 2 mps 730 mmHg 27%
    01:00 +28°C° 0 mm 2 mps 730 mmHg 27%
    02:00 +28°C° 0 mm 2 mps 730 mmHg 28%
    03:00 +28°C° 0 mm 2 mps 730 mmHg 28%
    04:00 +28°C° 0 mm 2 mps 730 mmHg 29%
    05:00 +29°C° 0 mm 2 mps 730 mmHg 29%
    06:00 +29°C° 0 mm 2 mps 730 mmHg 29%
    07:00 +31°C° 0 mm 2 mps 730 mmHg 26%
    08:00 +34°C° 0 mm 3 mps 730 mmHg 24%
    09:00 +36°C° 0 mm 3 mps 730 mmHg 21%
    10:00 +37°C° 0 mm 3 mps 730 mmHg 20%
    11:00 +38°C° 0 mm 2 mps 730 mmHg 20%
    12:00 +39°C° 0 mm 2 mps 730 mmHg 19%
    13:00 +40°C° 0 mm 2 mps 730 mmHg 19%
    14:00 +40°C° 0 mm 2 mps 729 mmHg 18%
    15:00 +40°C° 0 mm 1 mps 729 mmHg 18%
    16:00 +40°C° 0 mm 1 mps 729 mmHg 19%
    17:00 +39°C° 0 mm 1 mps 730 mmHg 21%
    18:00 +39°C° 0 mm 1 mps 730 mmHg 22%
    19:00 +36°C° 0 mm 2 mps 730 mmHg 26%
    20:00 +34°C° 0 mm 2 mps 731 mmHg 29%
    21:00 +31°C° 0 mm 3 mps 731 mmHg 33%
    22:00 +30°C° 0 mm 3 mps 731 mmHg 36%
    23:00 +30°C° 0 mm 3 mps 731 mmHg 39%

    27 July, Thursday

    Time Temperature Precipitation Wind Pressure Humidity
    00:00 +29°C° 0 mm 2 mps 731 mmHg 42%
    01:00 +29°C° 0 mm 2 mps 731 mmHg 43%
    02:00 +28°C° 0 mm 2 mps 731 mmHg 43%
    03:00 +28°C° 0 mm 2 mps 732 mmHg 44%
    04:00 +29°C° 0 mm 2 mps 732 mmHg 42%
    05:00 +29°C° 0 mm 2 mps 732 mmHg 41%
    06:00 +30°C° 0 mm 2 mps 732 mmHg 39%
    07:00 +32°C° 0 mm 2 mps 732 mmHg 34%
    08:00 +35°C° 0 mm 2 mps 732 mmHg 28%
    09:00 +37°C° 0 mm 2 mps 732 mmHg 23%
    10:00 +38°C° 0 mm 2 mps 732 mmHg 21%
    11:00 +39°C° 0 mm 2 mps 732 mmHg 20%
    12:00 +40°C° 0 mm 1 mps 731 mmHg 19%
    13:00 +41°C° 0 mm 2 mps 731 mmHg 19%
    14:00 +41°C° 0 mm 2 mps 731 mmHg 19%
    15:00 +42°C° 0 mm 2 mps 731 mmHg 19%
    16:00 +41°C° 0 mm 2 mps 731 mmHg 20%
    17:00 +40°C° 0 mm 2 mps 731 mmHg 22%
    18:00 +40°C° 0 mm 2 mps 731 mmHg 23%
    19:00 +38°C° 0 mm 3 mps 731 mmHg 26%
    20:00 +35°C° 0 mm 3 mps 732 mmHg 29%
    21:00 +33°C° 0 mm 4 mps 732 mmHg 33%
    22:00 +33°C° 0 mm 3 mps 732 mmHg 34%
    23:00 +31°C° 0 mm 3 mps 732 mmHg 36%
    Show more